DW3753 Weather Reports


Display with metric or nautical units.
time (UTC)temp
F
wind
direction
speed
MPH
gust
MPH
rain 1hr
in
rain 24hr
in
rain mn
in
humidity
%
barometer
mb
20260904101506 78 155 2.0 6.0 0.02 0.02 0.02 84 1011.1
20260904100501 78 167 3.0 8.0 0.02 0.02 0.02 84 1011.2
20260904095501 78 191 6.0 13.0 0.02 0.02 0.02 83 1011.1
20260904094500 79 192 7.0 13.0 0.02 0.02 0.02 82 1010.9
20260904093946 80 159 6.0 14.0 0.00 0.00 0.00 81 1011.1
20260904092459 80 157 5.0 11.0 0.00 0.00 0.00 81 1011.1
20260904091500 79 159 5.0 11.0 0.00 0.00 0.00 81 1010.9
20260904090500 80 149 5.0 10.0 0.00 0.00 0.00 81 1010.8
20260904085500 80 194 5.0 11.0 0.00 0.00 0.00 81 1010.9
20260904085424 79 157 5.0 10.0 0.00 0.00 0.00 80 1010.8
20260904083456 79 181 5.0 11.0 0.00 0.00 0.00 80 1010.8
20260904082453 79 166 4.0 11.0 0.00 0.00 0.00 80 1010.9
20260904081455 79 157 4.0 10.0 0.00 0.00 0.00 80 1010.9
20260904080453 79 167 5.0 12.0 0.00 0.00 0.00 80 1011.1
20260904080410 79 163 5.0 9.0 0.00 0.00 0.00 79 1010.9
20260904074455 79 165 4.0 12.0 0.00 0.00 0.00 79 1010.8
20260904073455 80 148 4.0 10.0 0.00 0.00 0.00 78 1010.9
20260904072455 80 153 5.0 13.0 0.00 0.00 0.00 78 1010.9
20260904071454 80 165 5.0 10.0 0.00 0.00 0.00 78 1011.1
20260904070449 80 183 5.0 12.0 0.00 0.00 0.00 77 1011.2
20260904065452 80 158 5.0 11.0 0.00 0.00 0.00 76 1011.3
20260904064449 80 158 5.0 13.0 0.00 0.00 0.00 75 1011.5
20260904063448 80 162 5.0 12.0 0.00 0.00 0.00 74 1011.3
20260904062449 80 163 6.0 13.0 0.00 0.00 0.00 73 1011.3
20260904061449 80 149 5.0 15.0 0.00 0.00 0.00 72 1011.3
20260904060449 80 143 4.0 13.0 0.00 0.00 0.00 72 1011.5
20260904055448 81 178 4.0 9.0 0.00 0.00 0.00 71 1011.3
20260904054449 81 140 4.0 13.0 0.00 0.00 0.00 70 1011.6
20260904053443 81 171 3.0 8.0 0.00 0.00 0.00 69 1011.5
20260904052442 81 148 4.0 12.0 0.00 0.00 0.00 69 1011.2
20260904051443 82 142 4.0 17.0 0.00 0.00 0.00 68 1010.9
20260904050441 82 182 4.0 10.0 0.00 0.00 0.00 67 1011.3
20260904045441 82 137 3.0 10.0 0.00 0.00 0.00 67 1011.4
20260904044440 82 146 3.0 10.0 0.00 0.00 0.00 67 1011.4
20260904043439 82 154 3.0 9.0 0.00 0.00 0.00 66 1011.3
20260904042441 82 154 3.0 9.0 0.00 0.00 0.00 66 1011.2
20260904041920 82 181 3.0 12.0 0.00 0.00 0.00 66 1011.2
20260904040435 83 101 2.0 9.0 0.00 0.00 0.00 66 1011.2
20260904035438 83 168 2.0 7.0 0.00 0.00 0.00 66 1011.2
20260904034435 83 137 3.0 9.0 0.00 0.00 0.00 66 1011.2
20260904033434 83 149 3.0 10.0 0.00 0.00 0.00 65 1011.1
20260904032920 84 125 2.0 7.0 0.00 0.00 0.00 65 1010.9
20260904031433 84 98 3.0 8.0 0.00 0.00 0.00 65 1010.8
20260904030433 84 144 3.0 7.0 0.00 0.00 0.00 64 1010.8
20260904025433 84 112 2.0 7.0 0.00 0.00 0.00 63 1010.7
20260904024925 84 121 2.0 8.0 0.00 0.00 0.00 62 1010.7
20260904023429 85 135 3.0 11.0 0.00 0.00 0.00 62 1010.5
20260904022429 85 129 3.0 8.0 0.00 0.00 0.00 62 1010.4
20260904021430 85 99 4.0 12.0 0.00 0.00 0.00 61 1010.3
20260904020429 85 165 3.0 9.0 0.00 0.00 0.00 60 1010.1
20260904015438 85 125 4.0 13.0 0.00 0.00 0.00 60 1009.9
20260904014427 86 144 4.0 10.0 0.00 0.00 0.00 60 1009.8
20260904013427 86 149 3.0 10.0 0.00 0.00 0.00 61 1009.6
20260904012427 86 86 3.0 14.0 0.00 0.00 0.00 61 1009.4
20260904011432 87 151 3.0 11.0 0.00 0.00 0.00 61 1009.2
20260904010428 87 157 3.0 8.0 0.00 0.00 0.00 61 1009.1
20260904005423 88 138 4.0 11.0 0.00 0.00 0.00 60 1009.0
20260904004422 88 198 4.0 10.0 0.00 0.00 0.00 60 1009.0
20260904003423 88 82 4.0 9.0 0.00 0.00 0.00 60 1008.9
20260904002422 89 176 4.0 14.0 0.00 0.00 0.00 60 1009.0
20260904001423 89 184 3.0 11.0 0.00 0.00 0.00 59 1009.0
20260904000421 90 101 4.0 9.0 0.00 0.00 0.00 59 1008.8
20260903235421 90 141 4.0 10.0 0.00 0.00 0.00 59 1008.8
20260903234423 90 152 3.0 9.0 0.00 0.00 0.00 59 1008.7
20260903233417 91 159 3.0 8.0 0.00 0.00 0.00 58 1008.8
20260903232417 91 207 3.0 8.0 0.00 0.00 0.00 58 1008.6
20260903231415 91 136 3.0 8.0 0.00 0.00 0.00 58 1008.4
20260903230417 92 144 3.0 9.0 0.00 0.00 0.00 58 1008.5
20260903225415 92 202 4.0 9.0 0.00 0.00 0.00 58 1008.5
20260903224415 92 149 3.0 9.0 0.00 0.00 0.00 58 1008.4
20260903223420 92 92 4.0 11.0 0.00 0.00 0.00 58 1008.4
20260903222415 92 143 3.0 10.0 0.00 0.00 0.00 57 1008.6
20260903221416 92 158 4.0 11.0 0.00 0.00 0.00 59 1008.5
20260903220411 91 159 5.0 11.0 0.00 0.00 0.00 59 1008.6
20260903215411 91 170 5.0 11.0 0.00 0.00 0.00 60 1008.6
20260903214407 91 158 3.0 9.0 0.00 0.00 0.00 59 1008.6
20260903213405 91 128 3.0 10.0 0.00 0.00 0.00 60 1008.8
20260903212405 91 97 3.0 10.0 0.00 0.00 0.00 60 1008.8
20260903211403 91 150 3.0 10.0 0.00 0.00 0.00 60 1008.8
20260903210401 91 140 4.0 11.0 0.00 0.00 0.00 60 1009.0
20260903205403 92 149 4.0 13.0 0.00 0.00 0.00 59 1009.0
20260903204359 92 153 4.0 10.0 0.00 0.00 0.00 58 1009.2
20260903203358 93 186 5.0 14.0 0.00 0.00 0.00 57 1009.4
20260903202359 93 190 7.0 13.0 0.00 0.00 0.00 57 1009.4
20260903201833 92 124 8.0 16.0 0.00 0.00 0.00 58 1009.4
20260903200355 91 167 9.0 18.0 0.00 0.00 0.00 59 1009.4
20260903195356 91 157 10.0 16.0 0.00 0.00 0.00 59 1009.5
20260903194357 92 204 10.0 17.0 0.00 0.00 0.00 59 1009.7
20260903193356 92 205 7.0 15.0 0.00 0.00 0.00 58 1009.8
20260903192846 91 194 8.0 17.0 0.00 0.00 0.00 58 1009.9
20260903191847 91 183 8.0 17.0 0.00 0.00 0.00 58 1010.1
20260903190355 91 180 5.0 12.0 0.00 0.00 0.00 60 1010.3
20260903185828 91 199 5.0 18.0 0.00 0.00 0.00 59 1010.5
20260903184839 91 136 7.0 16.0 0.00 0.00 0.00 59 1010.6
20260903183352 91 173 6.0 15.0 0.00 0.00 0.00 60 1010.6
20260903182825 90 161 6.0 15.0 0.00 0.00 0.00 61 1010.7
20260903181352 90 189 7.0 17.0 0.00 0.00 0.00 61 1010.8
20260903180834 90 193 7.0 16.0 0.00 0.00 0.00 61 1010.9
20260903175351 89 155 6.0 16.0 0.00 0.00 0.00 62 1011.1
20260903174353 88 190 4.0 11.0 0.00 0.00 0.00 64 1011.3
20260903173352 88 187 5.0 13.0 0.00 0.00 0.00 64 1011.4
20260903172841 89 135 5.0 12.0 0.00 0.00 0.00 63 1011.5
20260903171756 89 161 6.0 14.0 0.00 0.00 0.00 64 1011.5
20260903171435 89 148 7.0 15.0 0.00 0.00 0.00 62 1011.5
20260903165845 88 158 5.0 12.0 0.00 0.00 0.00 65 1011.6
20260903164350 87 157 5.0 16.0 0.00 0.00 0.00 66 1011.6
20260903163350 86 140 4.0 11.0 0.00 0.00 0.00 69 1011.7
20260903162839 85 118 3.0 9.0 0.00 0.00 0.00 72 1011.8
20260903161351 83 169 5.0 12.0 0.00 0.00 0.00 73 1011.9
20260903160351 83 182 4.0 11.0 0.00 0.00 0.00 74 1011.9
20260903155911 82 167 4.0 9.0 0.00 0.00 0.00 74 1011.9
20260903154347 82 191 3.0 10.0 0.00 0.00 0.00 74 1011.8
20260903153421 82 165 2.0 8.0 0.00 0.00 0.00 74 1011.7
20260903153001 82 144 3.0 9.0 0.00 0.00 0.00 75 1011.7
20260903152433 82 144 3.0 9.0 0.00 0.00 0.00 75 1011.7
20260903151344 82 162 2.0 8.0 0.00 0.00 0.00 75 1011.8
20260903150433 82 155 3.0 7.0 0.00 0.00 0.00 74 1011.9
20260903145345 82 142 2.0 8.0 0.00 0.00 0.00 73 1011.9
20260903144343 83 155 2.0 6.0 0.00 0.00 0.00 72 1011.9
20260903143448 83 130 2.0 6.0 0.00 0.00 0.00 73 1011.8
20260903142344 83 162 2.0 7.0 0.00 0.00 0.00 73 1011.8
20260903141345 82 120 1.0 4.0 0.00 0.00 0.00 75 1011.6
20260903140345 81 106 2.0 4.0 0.00 0.00 0.00 77 1011.8
20260903135828 80 77 1.0 4.0 0.00 0.00 0.00 78 1011.8
20260903134343 79 174 2.0 7.0 0.00 0.00 0.00 79 1011.6
20260903133341 78 170 0.0 4.0 0.00 0.00 0.00 80 1011.6
20260903132343 78 170 0.0 2.0 0.00 0.00 0.00 79 1011.5
20260903131342 78 170 0.0 2.0 0.00 0.00 0.00 79 1011.7
20260903130342 77 170 0.0 3.0 0.00 0.00 0.00 79 1011.6
20260903125341 77 178 0.0 3.0 0.00 0.00 0.00 79 1011.7
20260903124341 77 162 0.0 3.0 0.00 0.00 0.00 79 1011.6
20260903123343 77 80 0.0 3.0 0.00 0.00 0.00 79 1011.5
20260903122343 77 75 1.0 4.0 0.00 0.00 0.00 78 1011.4
20260903121345 77 101 2.0 6.0 0.00 0.00 0.00 78 1011.5
20260903120339 77 83 2.0 6.0 0.00 0.00 0.00 78 1011.3
20260903115341 77 86 3.0 8.0 0.00 0.00 0.00 78 1011.2
20260903114339 77 73 2.0 7.0 0.00 0.00 0.00 78 1011.2
20260903113820 77 76 2.0 5.0 0.00 0.00 0.00 78 1011.1
20260903112339 77 91 2.0 6.0 0.00 0.00 0.00 78 1011.1
20260903111340 77 88 2.0 4.0 0.00 0.00 0.00 77 1011.1
20260903110340 77 90 2.0 4.0 0.00 0.00 0.00 77 1010.8
20260903105335 77 96 1.0 5.0 0.00 0.00 0.00 77 1010.8
20260903104334 77 79 2.0 4.0 0.00 0.00 0.00 77 1010.8
20260903103336 77 86 1.0 3.0 0.00 0.00 0.00 76 1010.9
20260903102331 77 174 1.0 3.0 0.00 0.00 0.00 76 1010.8